This is the latest recevied weather packets stored in our database for station/object VY2CRA-4. If no packets are shown the sender has not sent any weather packets the latest 10 day(s).
| Time | Temp. | Humidity | Pressure | Rain* | Wind** | Luminosity | Snow |
|---|---|---|---|---|---|---|---|
| 1788156340 | 70° F | 43% | 754.6 mmHg | 0 in | - | - | - |
| 1788155139 | 71° F | 42% | 754.6 mmHg | 0 in | - | - | - |
| 1788152738 | 72° F | 42% | 754.9 mmHg | 0 in | - | - | - |
| 1788151537 | 72° F | 42% | 755.2 mmHg | 0 in | - | - | - |
| 1788149135 | 73° F | 40% | 755.1 mmHg | 0 in | - | - | - |
| 1788147934 | 73° F | 39% | 754.8 mmHg | 0 in | - | - | - |
| 1788146734 | 74° F | 39% | 754.8 mmHg | 0 in | - | - | - |
| 1788145532 | 74° F | 38% | 754.8 mmHg | 0 in | - | - | - |
| 1788144331 | 74° F | 37% | 754.9 mmHg | 0 in | - | - | - |
| 1788143130 | 74° F | 36% | 754.9 mmHg | 0 in | - | - | - |
| 1788141929 | 75° F | 36% | 754.9 mmHg | 0 in | - | - | - |
| 1788140728 | 75° F | 35% | 754.9 mmHg | 0 in | - | - | - |
| 1788138326 | 76° F | 34% | 755.4 mmHg | 0 in | - | - | - |
| 1788137126 | 77° F | 33% | 755.4 mmHg | 0 in | - | - | - |
| 1788135924 | 77° F | 32% | 755.2 mmHg | 0 in | - | - | - |
| 1788134723 | 78° F | 31% | 755.2 mmHg | 0 in | - | - | - |
| 1788133523 | 78° F | 30% | 755.2 mmHg | 0 in | - | - | - |
| 1788131121 | 80° F | 27% | 755.2 mmHg | 0 in | - | - | - |
| 1788129920 | 81° F | 26% | 755.2 mmHg | 0 in | - | - | - |
| 1788127518 | 83° F | 25% | 755.5 mmHg | 0 in | - | - | - |
| 1788126317 | 83° F | 24% | 755.5 mmHg | 0 in | - | - | - |
| 1788125116 | 83° F | 24% | 755.6 mmHg | 0 in | - | - | - |
| 1788123915 | 83° F | 25% | 755.5 mmHg | 0 in | - | - | - |
| 1788122714 | 83° F | 24% | 755.8 mmHg | 0 in | - | - | - |
| 1788119111 | 85° F | 18% | 756 mmHg | 0 in | - | - | - |
* Rain since midnight (hover to see other rain measurements)
** Current wind speed in m/s (hover to see current wind gust speed)